Pagina principale
METAR-TAF:

METAR-TAF

Aeroporti :

Santa Maria di Leuca

Castrignano del Capo, Italia

latitudine: 39-49N, longitudine: 018-21E, altezza: 104 m

Osservazione

Il bollettino è stato emesso 44 minuti fa, alle 17:55 UTC
Vento 3 kt da sud-ovest
Temperature 17°C
Umidità 82%
Pressione 1007 hPa
Visibilità 10 km o più
Poco nuvoloso ad un'altezza di 2000 ft

METAR: LIBY 191755Z 22003KT 9999 FEW020 17/14 Q1007 RMK BKN BKN190 QUK 1 QUL 0 VIS MAR 10 KM VIS MIN 9999

Ora: 20:39 (18:39 UTC)


TAF: mancante

Osservazioni e previsioni meteorologiche di più di 4000 aeroporti (messaggi METAR e TAF).

Le stazioni disponibili sono rappresentate dai dischi gialli e rossi sulla carta.

Puntare il mouse per vedere il nome della stazione.

Clicca sopra per visualizzare le osservazioni e previsioni meteorologiche.

Per cambiare la mappa : fare clic sui pulsanti verdi con una croce nera per ingrandire, il pulsante verde con un trattino per diminuire, o sulla freccia verde per le mappe adiacenti.


METAR-TAF: